[[{"header":{"parameterUnit":"m.s-1","parameterCategory":1,"la1":30.2991,"la2":30.254,"lo1":-89.0895,"lo2":-89.0444,"dy":0.0017,"dx":0.0017,"nx":28,"ny":28,"refTime":"2024-06-23T03:00:00:Z","depth":0,"parameterNumber":2,"parameterNumberName":"U-component_of_WINDS"},"data":[0,0,0,0,0,0,0,0,0,0,0,0,0,0,0,0,0,0,0,0,0,0,0,0,0,0,0,0,0,0,0,0,0,0,0,0,0,0,0,0,0,0,0,0,0,0,0,0,0,0,0,0,0,0,0,0,0,0,2.0951,2.0951,0,2.1028,2.1029,2.103,2.1035,2.1034,2.1033,2.1032,2.1109,2.1112,2.1115,0,0,0,0,0,0,0,0,0,0,0,0,0,2.0803,2.0805,2.095,2.0951,2.0952,2.1028,2.1029,2.103,2.1035,2.1034,2.1033,2.1032,2.1108,2.1112,2.1115,0,0,0,0,0,0,0,0,0,0,0,0,0,2.0872,2.0806,2.095,2.0964,2.0966,2.1028,2.1029,2.103,2.1035,2.1034,2.1032,2.1031,2.1107,2.1112,2.1116,2.1169,0,0,2.1129,2.1131,0,0,0,0,0,0,0,0,2.0868,2.0878,2.0961,2.0963,2.0965,2.102,2.1005,2.1077,2.1035,2.1009,2.1032,2.103,2.1081,2.1087,2.1105,2.1172,2.1176,2.1129,2.1132,2.1134,2.1135,0,0,0,0,0,0,0,2.0863,2.0874,2.0981,2.0962,2.0965,2.0965,2.0973,2.1019,2.1051,2.1011,2.1011,2.1021,2.1082,2.11,2.1106,2.1177,2.1129,2.1133,2.1136,2.1137,2.1289,2.129,0,0,0,0,0,0,2.0856,2.087,2.0979,2.0983,2.0913,2.0969,2.0978,2.1004,2.1051,2.1056,2.1022,2.1021,2.1094,2.1101,2.1109,2.1172,2.1134,2.1138,2.114,2.1288,2.1289,2.1291,0,0,0,0,0,0,2.0853,2.0866,2.0976,2.0927,2.0941,2.0973,2.1002,2.1006,2.1025,2.1059,2.1064,2.1035,2.1093,2.1103,2.1153,2.1175,2.114,2.1144,2.1286,2.1288,2.129,2.1299,0,0,0,0,0,0,2.0849,2.0865,2.0886,2.0928,2.0944,2.102,2.1003,2.1009,2.1033,2.1032,2.1073,2.1078,2.1093,2.1147,2.1158,2.118,2.1147,2.1284,2.1287,2.1289,2.1297,2.1302,2.1305,0,0,0,0,0,2.0844,2.0886,2.0887,2.09,2.0971,2.1021,2.103,2.1046,2.1034,2.1055,2.1077,2.1077,2.1171,2.1152,2.1164,2.1188,2.1283,2.1286,2.1289,2.1295,2.1301,2.1305,0,0,0,0,0,0,2.0846,2.0892,2.0894,2.0951,2.0982,2.1022,2.1049,2.1052,2.1086,2.1084,2.1102,2.1111,2.116,2.118,2.1158,2.124,2.1225,2.1231,2.1226,2.1231,2.1235,2.1229,2.1151,0,0,0,0,0,2.0854,2.0891,2.0929,2.0975,2.0991,2.1017,2.1039,2.1049,2.1082,2.1095,2.112,2.1151,2.1187,2.121,2.1246,2.13,2.1308,2.1323,2.1327,2.133,2.1334,2.1362,2.1368,2.1301,2.1301,2.1301,0,0,2.0869,2.0898,2.0921,2.0976,2.1002,2.1038,2.1028,2.1068,2.1095,2.1101,2.1149,2.1169,2.1204,2.1256,2.128,2.1273,2.1354,2.1334,2.1336,2.1339,2.1366,2.1372,2.1377,2.1304,2.1303,2.1303,0,0,2.0915,2.0942,2.0983,2.1008,2.1046,2.1063,2.1073,2.1112,2.1125,2.1174,2.1178,2.121,2.1273,2.1297,2.1318,2.1372,2.1372,2.1383,2.1403,2.143,2.1435,2.1439,2.1456,2.1462,2.1387,2.1387,2.1387,0,2.0929,2.0986,2.1003,2.1043,2.1066,2.1073,2.1113,2.1136,2.1184,2.1199,2.1191,2.1269,2.1293,2.135,2.1362,2.138,2.139,2.1377,2.1433,2.1438,2.1442,2.1458,2.1465,2.1388,2.1388,2.1388,2.1388,0,2.1,2.1039,2.1067,2.1112,2.1139,2.1179,2.1201,2.1225,2.1232,2.1249,2.1298,2.1328,2.1368,2.1382,2.139,2.1439,2.1434,2.1429,2.1414,2.1449,2.1464,2.1471,2.1389,2.1389,2.1389,2.1388,0,0,2.105,2.1104,2.1113,2.1133,2.1175,2.1205,2.1244,2.1284,2.1303,2.1336,2.1367,2.142,2.1415,2.1438,2.1449,2.1472,2.1509,2.1464,2.1465,2.147,2.1563,2.1564,2.1571,2.1511,2.1512,2.1513,2.1559,0,2.1099,2.1169,2.1185,2.1245,2.128,2.1286,2.132,2.1348,2.1365,2.1396,2.1414,2.145,2.1443,2.1456,2.148,2.15,2.1528,2.1497,2.1538,2.154,2.1527,2.158,2.1582,2.1624,2.1565,2.1566,2.1567,0,2.1166,2.1199,2.1262,2.1297,2.1313,2.1343,2.1379,2.141,2.1441,2.1451,2.1477,2.1484,2.1523,2.1507,2.156,2.1538,2.1556,2.1568,2.157,2.1573,2.1554,2.1582,2.1638,2.1643,2.1577,2.1576,2.1576,0,2.1193,2.1254,2.1299,2.1316,2.1359,2.1379,2.1398,2.1428,2.145,2.1482,2.1496,2.1532,2.1551,2.1578,2.1594,2.1581,2.1644,2.163,2.1652,2.1652,2.1664,2.1663,2.1722,2.1679,2.1679,2.1679,2.1679,0,2.1245,2.1283,2.1311,2.1339,2.138,2.1398,2.1438,2.1457,2.1483,2.1513,2.1521,2.1549,2.157,2.16,2.1613,2.1653,2.1662,2.167,2.1672,2.1668,2.1667,2.1679,2.1676,2.168,2.168,2.168,2.1679,0,2.1282,2.1303,2.1352,2.1388,2.1398,2.1427,2.1457,2.1483,2.15,2.1537,2.1547,2.1573,2.1609,2.1628,2.1673,2.1681,2.1725,2.1727,2.1714,2.1715,2.1735,2.1732,2.1802,2.1811,2.1764,2.1765,2.1765,0,2.1313,2.1342,2.1381,2.1402,2.1421,2.1454,2.1477,2.1494,2.1517,2.1554,2.1575,2.1611,2.1641,2.1697,2.1719,2.1753,2.1754,2.1777,2.1759,2.1753,2.1752,2.1749,2.1751,2.1779,2.1779,2.178,2.178,0,2.1365,2.1373,2.1406,2.1441,2.1467,2.1496,2.1524,2.154,2.1563,2.1587,2.1624,2.1647,2.1692,2.1727,2.1762,2.178,2.1783,2.1785,2.1792,2.1787,2.1777,2.178,2.172,2.1783,2.1783,2.1783,2.1783,2.1783,2.1398,2.1423,2.1454,2.1489,2.1512,2.1538,2.1563,2.1583,2.1614,2.1652,2.1661,2.1698,2.1727,2.1775,2.1793,2.1822,2.1818,2.1828,2.183,2.1832,2.1831,2.1774,2.1829,2.1829,2.1829,2.1829,2.1829,0,2.1448,2.1468,2.1501,2.1539,2.1566,2.1568,2.1599,2.1621,2.1654,2.1681,2.171,2.175,2.1784,2.1808,2.1842,2.186,2.1862,2.1868,2.1866,2.187,2.1835,2.1825,2.1866,2.1866,2.1866,2.1866,2.1866,2.1866,2.1478,2.152,2.1531,2.1584,2.1603,2.1641,2.1658,2.1681,2.1702,2.1747,2.1775,2.1791,2.1816,2.1852,2.1882,2.1888,2.1899,2.1904,2.191,2.1876,2.1872,2.1869,2.1859,2.1907,2.1907,2.1943,2.1943,2.1943]},{"header":{"parameterUnit":"m.s-1","parameterCategory":1,"la1":30.2991,"la2":30.254,"lo1":-89.0895,"lo2":-89.0444,"dy":0.0017,"dx":0.0017,"nx":28,"ny":28,"refTime":"2024-06-23T03:00:00:Z","depth":0,"parameterNumber":3,"parameterNumberName":"V-component_of_WINDS"},"data":[0,0,0,0,0,0,0,0,0,0,0,0,0,0,0,0,0,0,0,0,0,0,0,0,0,0,0,0,0,0,0,0,0,0,0,0,0,0,0,0,0,0,0,0,0,0,0,0,0,0,0,0,0,0,0,0,0,0,1.7164,1.7165,0,1.722,1.7221,1.7221,1.7193,1.7192,1.7191,1.7189,1.7245,1.7248,1.7251,0,0,0,0,0,0,0,0,0,0,0,0,0,1.7031,1.7034,1.7164,1.7165,1.7166,1.722,1.7221,1.7221,1.7194,1.7192,1.719,1.7188,1.7244,1.7248,1.7251,0,0,0,0,0,0,0,0,0,0,0,0,0,1.7088,1.7035,1.7164,1.7158,1.7158,1.722,1.7221,1.7222,1.7194,1.7192,1.719,1.7188,1.7243,1.7247,1.7251,1.7321,0,0,1.7264,1.7266,0,0,0,0,0,0,0,0,1.7085,1.7093,1.7158,1.7159,1.7159,1.7198,1.7194,1.7255,1.7195,1.718,1.7189,1.7187,1.7231,1.7236,1.7251,1.7324,1.7326,1.7265,1.7267,1.7269,1.727,0,0,0,0,0,0,0,1.7081,1.709,1.7186,1.7159,1.716,1.7152,1.7158,1.7206,1.7217,1.7182,1.718,1.7187,1.7231,1.7247,1.7252,1.7327,1.7265,1.7268,1.7271,1.7273,1.7458,1.746,0,0,0,0,0,0,1.7078,1.7087,1.7184,1.7188,1.7116,1.7156,1.7163,1.7187,1.7217,1.7219,1.7188,1.7185,1.7241,1.7247,1.7254,1.7337,1.7269,1.7273,1.7276,1.7455,1.7458,1.7461,0,0,0,0,0,0,1.7075,1.7087,1.7182,1.7137,1.7149,1.7161,1.7189,1.719,1.7206,1.7222,1.7224,1.7204,1.724,1.7248,1.7304,1.7339,1.7275,1.7279,1.7453,1.7456,1.746,1.7504,0,0,0,0,0,0,1.7071,1.7086,1.7113,1.7138,1.7151,1.7232,1.7191,1.7192,1.7214,1.721,1.7236,1.7239,1.7239,1.7298,1.7309,1.7343,1.7282,1.745,1.7454,1.7458,1.7499,1.7508,1.7516,0,0,0,0,0,1.7067,1.7123,1.7115,1.7127,1.7186,1.7235,1.7242,1.7241,1.7217,1.7244,1.7253,1.7238,1.7333,1.7304,1.7316,1.7352,1.7448,1.7453,1.7458,1.7495,1.7506,1.7516,0,0,0,0,0,0,1.7102,1.7127,1.7117,1.7184,1.7207,1.723,1.7264,1.7253,1.7284,1.7279,1.7276,1.7282,1.734,1.7352,1.7319,1.742,1.7386,1.7394,1.7411,1.7421,1.743,1.7425,1.7286,0,0,0,0,0,1.7118,1.7156,1.7175,1.7232,1.7244,1.7252,1.7273,1.727,1.7294,1.7304,1.7318,1.7341,1.7376,1.7399,1.7432,1.75,1.7505,1.7531,1.7539,1.7546,1.7553,1.7588,1.7599,1.7478,1.7478,1.7478,0,0,1.7151,1.7169,1.7193,1.724,1.7258,1.7296,1.7261,1.7303,1.7332,1.731,1.7364,1.7375,1.7401,1.7463,1.7491,1.7474,1.7587,1.7553,1.7558,1.7561,1.7595,1.7606,1.7616,1.7482,1.7481,1.7481,0,0,1.7231,1.7248,1.7297,1.7315,1.7343,1.7347,1.7359,1.7383,1.7389,1.7443,1.7427,1.746,1.7521,1.7539,1.7557,1.7641,1.7627,1.7652,1.7696,1.773,1.774,1.7748,1.7777,1.7788,1.7659,1.7659,1.7659,0,1.7268,1.7326,1.7324,1.7367,1.7388,1.737,1.7418,1.7436,1.7473,1.7486,1.7467,1.7542,1.7558,1.7624,1.7644,1.7659,1.7671,1.7649,1.7739,1.7747,1.7755,1.7783,1.7794,1.7661,1.7661,1.7661,1.7661,0,1.737,1.741,1.7446,1.7482,1.7506,1.7552,1.7556,1.758,1.7575,1.7581,1.7635,1.7654,1.7689,1.7705,1.77,1.7769,1.7758,1.7739,1.7705,1.7769,1.7795,1.7806,1.7665,1.7664,1.7664,1.7663,0,0,1.7475,1.7507,1.7521,1.7536,1.7564,1.7594,1.7639,1.7674,1.7695,1.772,1.7756,1.7807,1.7789,1.7809,1.7805,1.7836,1.79,1.7813,1.7813,1.7828,1.7976,1.799,1.8002,1.7891,1.7893,1.7894,1.7973,0,1.7556,1.7634,1.7632,1.7705,1.7741,1.7724,1.7762,1.7783,1.7789,1.782,1.7827,1.7863,1.7837,1.7848,1.7878,1.7886,1.793,1.788,1.7924,1.7925,1.7918,1.8016,1.8031,1.8105,1.7984,1.7985,1.7987,0,1.7661,1.769,1.7766,1.7786,1.7802,1.7836,1.7867,1.7898,1.792,1.7922,1.7944,1.7935,1.7979,1.7943,1.8002,1.7969,1.7986,1.7993,1.7996,1.8,1.796,1.8022,1.8128,1.8139,1.8003,1.8001,1.8,0,1.7729,1.7786,1.7839,1.7852,1.7878,1.7903,1.7915,1.7935,1.7955,1.7982,1.7995,1.8027,1.8044,1.8068,1.8068,1.8042,1.8128,1.8092,1.813,1.813,1.8149,1.8148,1.8259,1.8161,1.8161,1.816,1.816,0,1.782,1.7867,1.7869,1.7902,1.7953,1.795,1.8001,1.801,1.8028,1.8061,1.8047,1.8078,1.8076,1.8107,1.8107,1.8155,1.8163,1.8166,1.8165,1.8167,1.8167,1.8178,1.8173,1.8163,1.8163,1.8162,1.8162,0,1.7905,1.7909,1.7964,1.7984,1.799,1.8027,1.8043,1.8073,1.8078,1.8119,1.8129,1.8136,1.8172,1.8174,1.8215,1.8214,1.8273,1.8267,1.8266,1.8265,1.8302,1.8298,1.8425,1.8441,1.8332,1.8333,1.8334,0,1.7962,1.7998,1.8021,1.8042,1.8055,1.8089,1.811,1.8108,1.813,1.8157,1.8183,1.8217,1.8245,1.8302,1.831,1.8341,1.8336,1.8378,1.834,1.834,1.8335,1.8333,1.8336,1.8385,1.8386,1.8387,1.8388,0,1.8063,1.8063,1.8094,1.8125,1.815,1.8174,1.8197,1.8215,1.8215,1.824,1.8276,1.8297,1.8338,1.8372,1.8402,1.8413,1.84,1.84,1.841,1.8412,1.841,1.8411,1.8285,1.8397,1.8396,1.8395,1.8395,1.8395,1.8136,1.8166,1.8187,1.8221,1.8237,1.8258,1.8287,1.8295,1.8325,1.8359,1.8355,1.8395,1.8415,1.8453,1.8467,1.8497,1.8482,1.8498,1.8501,1.8505,1.8509,1.8405,1.8502,1.8502,1.8502,1.8502,1.8502,0,1.8236,1.8248,1.8279,1.8311,1.8337,1.8323,1.8347,1.837,1.8405,1.8424,1.8451,1.8492,1.8524,1.8535,1.8566,1.8588,1.8583,1.8596,1.8594,1.8597,1.852,1.8508,1.8599,1.8599,1.8599,1.8599,1.8599,1.8599,1.8291,1.8341,1.8343,1.84,1.8412,1.8451,1.8465,1.8484,1.85,1.8546,1.8572,1.8579,1.8594,1.8626,1.8654,1.8656,1.8668,1.8684,1.8684,1.8612,1.8602,1.8593,1.8581,1.8687,1.8687,1.8757,1.8758,1.8758]}]]